KUIPER-00145 (65767 NORAD) Tracking and Keplerian Element Data

This shows tracking and keplerian element data for the satellite.

Feedback or suggestion? Click here.




ElementValue
Catalog65767
NameKUIPER-00145
Epoch Orbit518
Epoch Day354.25003472
Epoch Year2025
RAAN31.291
Inclination51.8924
Eccentricity0.0006452
Argument of Perigee38.2023
Mean Anonmoly353.4242
Mean Motion15.04336364
Decay Rate-0.00039078
L11 65767U 25217F 25354.25003472 -.00039078 00000+0 -27654-2 0 9994
L22 65767 51.8924 31.2910 0006452 38.2023 353.4242 15.04336364 5185



Live tracking and technical data element details for KUIPER-00145 (NORAD 65767). KUIPER-00145 can be tracked NOW for your location showing map with azimuth and elevation plus other details from your city location.







IsCatalogInMostPopularTable: catalog: 65767, numindb: 5
Update: records affected: 1



GetName: 65767 KUIPER-00145

Hit Count: updated at: Tue, 21 Apr 2026 19:15:34 GMT